W1LH-10 Weather Reports


time (UTC)temp
C
wind
direction
speed
KPH
gust
KPH
rain 1hr
cm
rain 24hr
cm
rain mn
cm
humidity
%
barometer
mb
20260508090326 1 23 9.7 0.0 0.00 0.00 0.00 86 1003.2
20260508083325 1 17 8.0 0.0 0.00 0.00 0.00 86 1003.3
20260508080347 1 5 9.7 0.0 0.00 0.00 0.00 85 1003.1
20260508073348 2 75 9.7 0.0 0.00 0.00 0.00 83 1003.1
20260508070326 3 29 8.0 0.0 0.00 0.00 0.00 79 1003.2
20260508063317 3 9 8.0 0.0 0.00 0.00 0.00 75 1003.3
20260508060337 3 346 8.0 0.0 0.00 0.00 0.00 74 1003.5
20260508053346 4 297 8.0 0.0 0.00 0.00 0.00 70 1003.8
20260508050320 4 331 8.0 0.0 0.00 0.00 0.00 69 1004.1
20260508043339 4 282 8.0 0.0 0.00 0.00 0.00 69 1004.2
20260508040337 5 324 8.0 0.0 0.00 0.00 0.69 68 1004.1
20260508033319 5 360 9.7 0.0 0.00 0.00 0.69 68 1004.2
20260508030315 5 57 6.4 0.0 0.00 0.00 0.69 68 1004.2
20260508023331 5 5 8.0 0.0 0.00 0.00 0.69 68 1004.2
20260508020324 5 22 9.7 0.0 0.00 0.00 0.69 68 1004.2
20260508013317 6 360 8.0 0.0 0.00 0.00 0.69 69 1004.2
20260508010353 6 284 8.0 0.0 0.00 0.00 0.69 74 1004.1
20260508003327 7 355 6.4 0.0 0.00 0.00 0.69 78 1004.1
20260508000327 8 60 9.7 0.0 0.00 0.00 0.69 79 1003.5
20260507233319 8 35 4.8 0.0 0.00 0.00 0.69 81 1003.1
20260507230331 9 35 9.7 0.0 0.00 0.00 0.69 78 1002.3
20260507223326 9 69 8.0 0.0 0.00 0.00 0.69 79 1002.4
20260507220325 8 331 8.0 0.0 0.00 0.00 0.69 80 1002.4
20260507213328 9 346 8.0 0.0 0.00 0.00 0.69 77 1002.3
20260507210327 10 360 8.0 0.0 0.00 0.00 0.69 75 1002.2
20260507203325 11 72 6.4 0.0 0.00 0.00 0.69 62 1001.7
20260507200343 12 269 6.4 0.0 0.00 0.00 0.69 55 1001.4
20260507193330 12 11 6.4 0.0 0.00 0.00 0.69 54 1001.4
20260507190326 13 360 3.2 0.0 0.00 0.00 0.69 51 1001.5
20260507183317 13 254 8.0 0.0 0.00 0.00 0.69 51 1001.8
20260507180339 12 284 9.7 0.0 0.00 0.00 0.69 53 1002.1
20260507173332 12 360 8.0 0.0 0.00 0.00 0.69 62 1002.1
20260507170328 12 286 6.4 0.0 0.00 0.00 0.69 62 1002.3
20260507163323 12 331 8.0 0.0 0.00 0.00 0.69 68 1002.9
20260507160341 11 296 4.8 0.0 0.00 0.00 0.69 71 1003.0
20260507153348 10 78 4.8 0.0 0.00 0.00 0.69 78 1003.3
20260507150332 9 53 8.0 0.0 0.00 0.00 0.69 80 1003.5
20260507143326 8 36 6.4 0.0 0.00 0.00 0.69 86 1003.6
20260507140330 7 329 4.8 0.0 0.00 0.00 0.69 64 1003.8
20260507133320 6 280 6.4 0.0 0.00 0.00 0.69 58 1003.9
20260507130316 6 291 8.0 0.0 0.00 0.00 0.69 59 1003.8
20260507123325 6 18 6.4 0.0 0.00 0.00 0.69 59 1004.2
20260507120328 5 355 4.8 0.0 0.00 0.00 0.69 59 1004.4
20260507113330 5 23 9.7 0.0 0.00 0.00 0.69 59 1003.6
20260507110329 5 338 8.0 0.0 0.00 0.00 0.69 59 1003.5
20260507103324 5 18 6.4 0.0 0.00 0.00 0.69 59 1003.6
20260507100329 5 9 8.0 0.0 0.00 0.00 0.69 59 1003.7
20260507093331 6 5 9.7 0.0 0.00 0.00 0.69 58 1002.6